CSZ9911 ZGSZ-ZSQD

Flight info

Callsign CSZ9911
Flight time 2h 35m
Altitude 35100
Route IDUMA1 IDUMA W22 SHL G471 EGEDA/K0861S1100 G471 PLT/K0852S1070 A599 JTN G327 NINAS B221 PINOT/K0850S1100 B221 IDVEL IDV81A
Aircraft B738/M-SDE2E3FGHIRWXY/LB1

Departure

Time 2026-04-17 01:11
Airport Shenzhen Bao'an International Airport (ZGSZ)

Arrival

Time 2026-04-17 03:46
Airport Qingdao Jiaodong International Airport (ZSQD)
Time Latitude Longitude Altitude Speed Heading
2026-04-17 00:52 22.64322 113.80321 17 ft 0 kts 238°
2026-04-17 01:04 22.64324 113.80324 18 ft 2 kts 238°
2026-04-17 01:04 22.64332 113.80340 17 ft 2 kts 245°
2026-04-17 01:05 22.64338 113.80356 18 ft 2 kts 253°
2026-04-17 01:05 22.64341 113.80374 18 ft 2 kts 266°
2026-04-17 01:05 22.64340 113.80391 19 ft 2 kts 286°
2026-04-17 01:05 22.64333 113.80407 18 ft 2 kts 310°
2026-04-17 01:06 22.64322 113.80419 19 ft 2 kts 329°
2026-04-17 01:06 22.64318 113.80421 19 ft 0 kts 332°
2026-04-17 01:07 22.64319 113.80420 19 ft 1 kts 332°
2026-04-17 01:08 22.64367 113.80395 18 ft 15 kts 335°
2026-04-17 01:08 22.64499 113.80331 17 ft 25 kts 336°
2026-04-17 01:08 22.64653 113.80249 17 ft 30 kts 332°
2026-04-17 01:08 22.64832 113.80152 18 ft 27 kts 341°
2026-04-17 01:09 22.64996 113.80184 18 ft 22 kts 17°
2026-04-17 01:09 22.65158 113.80171 18 ft 25 kts 336°
2026-04-17 01:09 22.65251 113.80240 18 ft 17 kts 64°
2026-04-17 01:09 22.65234 113.80350 19 ft 11 kts 152°
2026-04-17 01:10 22.65178 113.80381 20 ft 9 kts 153°
2026-04-17 01:10 22.65063 113.80443 20 ft 46 kts 154°
2026-04-17 01:10 22.64567 113.80714 18 ft 112 kts 153°
2026-04-17 01:10 22.63708 113.81186 24 ft 165 kts 154°
2026-04-17 01:11 22.62597 113.81794 374 ft 186 kts 153°
2026-04-17 01:11 22.61447 113.82421 1258 ft 180 kts 158°
2026-04-17 01:11 22.60201 113.82472 1983 ft 191 kts 201°
2026-04-17 01:11 22.59014 113.81633 2225 ft 216 kts 214°
2026-04-17 01:12 22.57678 113.80746 2419 ft 235 kts 208°
2026-04-17 01:12 22.56213 113.79891 2810 ft 243 kts 207°
2026-04-17 01:12 22.54695 113.79055 3317 ft 246 kts 206°
2026-04-17 01:12 22.53176 113.78247 3833 ft 248 kts 206°
2026-04-17 01:13 22.51620 113.77432 4368 ft 250 kts 205°
2026-04-17 01:13 22.50042 113.76609 4937 ft 252 kts 206°
2026-04-17 01:13 22.48661 113.75474 5616 ft 251 kts 237°
2026-04-17 01:13 22.48121 113.73709 6390 ft 249 kts 266°
2026-04-17 01:14 22.48113 113.71832 7077 ft 252 kts 271°
2026-04-17 01:14 22.48182 113.69936 7759 ft 253 kts 272°
2026-04-17 01:14 22.48563 113.68085 8430 ft 258 kts 297°
2026-04-17 01:14 22.49789 113.66655 9062 ft 269 kts 324°
2026-04-17 01:15 22.51600 113.65961 9329 ft 295 kts 353°
2026-04-17 01:15 22.53696 113.65998 9855 ft 306 kts 359°
2026-04-17 01:15 22.55845 113.66098 10331 ft 317 kts 359°
2026-04-17 01:15 22.58128 113.66202 10468 ft 338 kts 359°
2026-04-17 01:16 22.60544 113.66303 10657 ft 356 kts 359°
2026-04-17 01:16 22.63047 113.66401 11121 ft 363 kts 359°
2026-04-17 01:16 22.65570 113.66609 11732 ft 368 kts
2026-04-17 01:16 22.67894 113.67728 12354 ft 378 kts 36°
2026-04-17 01:17 22.69733 113.69774 13035 ft 382 kts 48°
2026-04-17 01:17 22.71445 113.71998 13632 ft 387 kts 48°
2026-04-17 01:17 22.73182 113.74244 14154 ft 392 kts 47°
2026-04-17 01:17 22.74946 113.76517 14782 ft 395 kts 47°
2026-04-17 01:18 22.76727 113.78799 15382 ft 398 kts 47°
2026-04-17 01:18 22.78529 113.81099 15950 ft 402 kts 47°
2026-04-17 01:18 22.80351 113.83419 16500 ft 406 kts 47°
2026-04-17 01:18 22.82190 113.85758 17052 ft 410 kts 47°
2026-04-17 01:19 22.84019 113.88088 17618 ft 412 kts 47°
2026-04-17 01:19 22.85911 113.90437 18171 ft 415 kts 43°
2026-04-17 01:19 22.88248 113.92219 18584 ft 412 kts 19°
2026-04-17 01:19 22.91000 113.92911 19070 ft 405 kts 359°
2026-04-17 01:20 22.93788 113.92756 19558 ft 400 kts 345°
2026-04-17 01:20 22.96401 113.91794 19985 ft 395 kts 329°
2026-04-17 01:20 22.98854 113.90440 20458 ft 397 kts 329°
2026-04-17 01:20 23.01345 113.89103 20907 ft 401 kts 329°
2026-04-17 01:21 23.03864 113.87777 21348 ft 404 kts 329°
2026-04-17 01:21 23.06470 113.86683 21749 ft 415 kts 343°
2026-04-17 01:21 23.09395 113.86634 22157 ft 431 kts
2026-04-17 01:21 23.12276 113.87670 22619 ft 443 kts 24°
2026-04-17 01:22 23.14833 113.89615 22905 ft 455 kts 37°
2026-04-17 01:22 23.17285 113.91813 23280 ft 459 kts 36°
2026-04-17 01:22 23.19764 113.94009 23635 ft 462 kts 36°
2026-04-17 01:22 23.22277 113.96209 23975 ft 464 kts 35°
2026-04-17 01:23 23.24806 113.98397 24343 ft 465 kts 35°
2026-04-17 01:23 23.27312 114.00551 24705 ft 466 kts 35°
2026-04-17 01:23 23.29863 114.02740 25043 ft 468 kts 34°
2026-04-17 01:23 23.32429 114.04933 25325 ft 471 kts 34°
2026-04-17 01:24 23.35015 114.07142 25638 ft 473 kts 34°
2026-04-17 01:24 23.37598 114.09349 26010 ft 472 kts 34°
2026-04-17 01:24 23.40183 114.11560 26351 ft 473 kts 34°
2026-04-17 01:24 23.42780 114.13784 26630 ft 476 kts 34°
2026-04-17 01:25 23.45390 114.16021 26938 ft 479 kts 34°
2026-04-17 01:25 23.48014 114.18271 27258 ft 481 kts 34°
2026-04-17 01:25 23.50607 114.20499 27566 ft 482 kts 34°
2026-04-17 01:25 23.53246 114.22763 27886 ft 483 kts 33°
2026-04-17 01:26 23.55912 114.25010 28137 ft 486 kts 34°
2026-04-17 01:26 23.58567 114.27308 28385 ft 488 kts 34°
2026-04-17 01:26 23.61224 114.29615 28653 ft 490 kts 34°
2026-04-17 01:26 23.63897 114.31924 28929 ft 491 kts 34°
2026-04-17 01:27 23.66594 114.34222 29170 ft 493 kts 33°
2026-04-17 01:27 23.69332 114.36483 29423 ft 494 kts 33°
2026-04-17 01:27 23.72048 114.38692 29662 ft 495 kts 33°
2026-04-17 01:27 23.74818 114.40939 29883 ft 497 kts 33°
2026-04-17 01:28 23.77602 114.43201 30087 ft 499 kts 33°
2026-04-17 01:28 23.80389 114.45474 30260 ft 501 kts 33°
2026-04-17 01:28 23.83180 114.47760 30434 ft 503 kts 33°
2026-04-17 01:28 23.85983 114.50061 30639 ft 504 kts 33°
2026-04-17 01:29 23.88783 114.52364 30903 ft 504 kts 33°
2026-04-17 01:29 23.94396 114.56986 31328 ft 506 kts 33°
2026-04-17 01:29 23.97167 114.59269 31586 ft 506 kts 33°
2026-04-17 01:30 23.99977 114.61585 31860 ft 506 kts 33°
2026-04-17 01:30 24.02790 114.63904 32089 ft 506 kts 33°
2026-04-17 01:30 24.05604 114.66226 32298 ft 508 kts 33°
2026-04-17 01:30 24.08427 114.68555 32547 ft 508 kts 33°
2026-04-17 01:31 24.11245 114.70883 32838 ft 507 kts 32°
2026-04-17 01:31 24.14062 114.73212 33149 ft 507 kts 32°
2026-04-17 01:31 24.16887 114.75546 33263 ft 511 kts 33°
2026-04-17 01:31 24.19693 114.77867 33398 ft 513 kts 33°
2026-04-17 01:32 24.22536 114.80222 33693 ft 512 kts 32°
2026-04-17 01:32 24.25389 114.82553 34006 ft 509 kts 29°
2026-04-17 01:32 24.28423 114.84499 34158 ft 503 kts 19°
2026-04-17 01:32 24.31651 114.85909 34300 ft 497 kts 11°
2026-04-17 01:33 24.34981 114.86779 34514 ft 490 kts
2026-04-17 01:33 24.38327 114.87518 34745 ft 490 kts
2026-04-17 01:33 24.41672 114.88292 34906 ft 493 kts
2026-04-17 01:33 24.45011 114.89104 35015 ft 491 kts
2026-04-17 01:34 24.48303 114.89905 35063 ft 488 kts
2026-04-17 01:34 24.54897 114.91549 35090 ft 487 kts
2026-04-17 01:35 24.61551 114.93182 35110 ft 494 kts
2026-04-17 01:35 24.68273 114.94860 35135 ft 497 kts
2026-04-17 01:36 24.75031 114.96553 35111 ft 499 kts
2026-04-17 01:36 24.81752 114.98218 35115 ft 498 kts
2026-04-17 01:37 24.88521 114.99860 35114 ft 498 kts
2026-04-17 01:37 24.95285 115.01506 35125 ft 497 kts
2026-04-17 01:38 25.02036 115.03157 35115 ft 496 kts
2026-04-17 01:38 25.08719 115.04803 35126 ft 495 kts
2026-04-17 01:39 25.15444 115.06452 35122 ft 495 kts
2026-04-17 01:39 25.22155 115.08089 35145 ft 493 kts
2026-04-17 01:40 25.28859 115.09737 35133 ft 493 kts
2026-04-17 01:40 25.32170 115.10322 35103 ft 483 kts 354°
2026-04-17 01:40 25.35457 115.10124 35143 ft 466 kts 341°
2026-04-17 01:41 25.41436 115.07927 35143 ft 445 kts 324°
2026-04-17 01:41 25.47043 115.04926 35136 ft 449 kts 326°
2026-04-17 01:42 25.52720 115.01984 35155 ft 452 kts 326°
2026-04-17 01:42 25.58390 114.99071 35145 ft 451 kts 326°
2026-04-17 01:43 25.64034 114.96168 35133 ft 445 kts 326°
2026-04-17 01:43 25.69637 114.93273 35136 ft 443 kts 326°
2026-04-17 01:44 25.75249 114.90444 35120 ft 448 kts 332°
2026-04-17 01:44 25.78384 114.89845 35135 ft 472 kts 354°
2026-04-17 01:44 25.81686 114.90500 35149 ft 496 kts 13°
2026-04-17 01:44 25.84789 114.92222 35147 ft 518 kts 31°
2026-04-17 01:45 25.87470 114.94967 35182 ft 530 kts 44°
2026-04-17 01:45 25.92468 115.01088 35137 ft 538 kts 44°
2026-04-17 01:46 25.97455 115.07197 35129 ft 528 kts 43°
2026-04-17 01:46 26.02421 115.13159 35139 ft 524 kts 43°
2026-04-17 01:47 26.07370 115.19040 35143 ft 524 kts 43°
2026-04-17 01:47 26.12353 115.24964 35133 ft 524 kts 43°
2026-04-17 01:48 26.17332 115.30900 35135 ft 525 kts 43°
2026-04-17 01:48 26.22316 115.36856 35137 ft 526 kts 43°
2026-04-17 01:49 26.27266 115.42781 35142 ft 526 kts 43°
2026-04-17 01:49 26.32258 115.48760 35156 ft 527 kts 43°
2026-04-17 01:50 26.37248 115.54751 35158 ft 527 kts 43°
2026-04-17 01:50 26.42243 115.60751 35160 ft 528 kts 43°
2026-04-17 01:51 26.47210 115.66726 35135 ft 529 kts 43°
2026-04-17 01:51 26.52209 115.72751 35160 ft 529 kts 43°
2026-04-17 01:52 26.57205 115.78778 35148 ft 529 kts 43°
2026-04-17 01:52 26.62209 115.84826 35150 ft 530 kts 43°
2026-04-17 01:53 26.67177 115.90837 35148 ft 530 kts 43°
2026-04-17 01:53 26.72175 115.96892 35140 ft 530 kts 43°
2026-04-17 01:54 26.77175 116.02959 35155 ft 530 kts 43°
2026-04-17 01:54 26.82168 116.09026 35137 ft 530 kts 43°
2026-04-17 01:55 26.87126 116.15058 35141 ft 530 kts 43°
2026-04-17 01:55 26.92119 116.21141 35147 ft 531 kts 43°
2026-04-17 01:56 26.97137 116.27207 35148 ft 531 kts 43°
2026-04-17 01:56 27.02166 116.33259 35159 ft 530 kts 43°
2026-04-17 01:57 27.07156 116.39271 35156 ft 530 kts 43°
2026-04-17 01:57 27.12176 116.45344 35152 ft 531 kts 43°
2026-04-17 01:58 27.17194 116.51425 35162 ft 531 kts 43°
2026-04-17 01:58 27.22225 116.57508 35144 ft 531 kts 42°
2026-04-17 01:59 27.27314 116.63440 35152 ft 530 kts 41°
2026-04-17 01:59 27.32465 116.69373 35141 ft 530 kts 41°
2026-04-17 02:00 27.37590 116.75343 35144 ft 530 kts 41°
2026-04-17 02:00 27.42707 116.81331 35155 ft 531 kts 41°
2026-04-17 02:01 27.47832 116.87331 35142 ft 531 kts 41°
2026-04-17 02:01 27.52921 116.93291 35161 ft 531 kts 41°
2026-04-17 02:02 27.58078 116.99250 35158 ft 530 kts 41°
2026-04-17 02:02 27.63244 117.05209 35159 ft 531 kts 41°
2026-04-17 02:03 27.68390 117.11190 35147 ft 531 kts 42°
2026-04-17 02:03 27.73475 117.17150 35158 ft 530 kts 40°
2026-04-17 02:04 27.78645 117.23099 35130 ft 530 kts 41°
2026-04-17 02:04 27.83796 117.29039 35147 ft 530 kts 40°
2026-04-17 02:05 27.88926 117.35004 35156 ft 529 kts 41°
2026-04-17 02:05 27.93988 117.40952 35143 ft 528 kts 41°
2026-04-17 02:06 27.99099 117.46938 35143 ft 530 kts 41°
2026-04-17 02:06 28.04225 117.52936 35134 ft 530 kts 40°
2026-04-17 02:07 28.09347 117.58919 35149 ft 530 kts 41°
2026-04-17 02:07 28.14474 117.64937 35146 ft 532 kts 41°
2026-04-17 02:08 28.19581 117.70937 35158 ft 534 kts 41°
2026-04-17 02:08 28.24750 117.77007 35156 ft 535 kts 41°
2026-04-17 02:09 28.29922 117.83094 35146 ft 536 kts 41°
2026-04-17 02:09 28.35097 117.89198 35142 ft 537 kts 41°
2026-04-17 02:10 28.40233 117.95264 35145 ft 536 kts 41°
2026-04-17 02:10 28.45360 118.01406 35151 ft 536 kts 42°
2026-04-17 02:11 28.50411 118.07644 35132 ft 536 kts 43°
2026-04-17 02:11 28.55439 118.13876 35139 ft 534 kts 43°
2026-04-17 02:12 28.60437 118.20050 35128 ft 533 kts 43°
2026-04-17 02:12 28.65464 118.26256 35156 ft 533 kts 43°
2026-04-17 02:13 28.70482 118.32459 35154 ft 533 kts 43°
2026-04-17 02:13 28.75507 118.38680 35125 ft 533 kts 43°
2026-04-17 02:14 28.80519 118.44898 35136 ft 532 kts 43°
2026-04-17 02:14 28.85502 118.51079 35139 ft 534 kts 43°
2026-04-17 02:15 28.90515 118.57328 35127 ft 534 kts 43°
2026-04-17 02:15 28.95457 118.63486 35125 ft 533 kts 43°
2026-04-17 02:16 29.00533 118.69820 35118 ft 532 kts 43°
2026-04-17 02:16 29.05489 118.76016 35155 ft 532 kts 43°
2026-04-17 02:17 29.10495 118.82279 35120 ft 534 kts 43°
2026-04-17 02:17 29.15503 118.88575 35119 ft 535 kts 43°
2026-04-17 02:18 29.20515 118.94866 35113 ft 535 kts 43°
2026-04-17 02:18 29.25487 119.01109 35137 ft 533 kts 43°
2026-04-17 02:19 29.30474 119.07415 35125 ft 534 kts 44°
2026-04-17 02:19 29.35449 119.13728 35130 ft 533 kts 43°
2026-04-17 02:20 29.40430 119.20027 35128 ft 534 kts 43°
2026-04-17 02:20 29.45383 119.26290 35131 ft 534 kts 43°
2026-04-17 02:21 29.50367 119.32605 35122 ft 534 kts 43°
2026-04-17 02:21 29.55352 119.38934 35131 ft 534 kts 44°
2026-04-17 02:22 29.60309 119.45297 35136 ft 535 kts 44°
2026-04-17 02:22 29.65253 119.51639 35129 ft 537 kts 44°
2026-04-17 02:23 29.70208 119.58078 35123 ft 538 kts 44°
2026-04-17 02:23 29.75210 119.64462 35112 ft 535 kts 39°
2026-04-17 02:24 29.81096 119.69442 35134 ft 519 kts 21°
2026-04-17 02:24 29.87368 119.73480 35129 ft 520 kts 21°
2026-04-17 02:25 29.93653 119.77629 35125 ft 522 kts 23°
2026-04-17 02:25 29.99919 119.81869 35131 ft 523 kts 23°
2026-04-17 02:26 30.06197 119.86125 35129 ft 523 kts 22°
2026-04-17 02:26 30.12483 119.90369 35115 ft 524 kts 23°
2026-04-17 02:27 30.18729 119.94598 35112 ft 524 kts 23°
2026-04-17 02:27 30.25024 119.98862 35111 ft 524 kts 23°
2026-04-17 02:28 30.31320 120.03137 35119 ft 524 kts 23°
2026-04-17 02:28 30.37602 120.07408 35118 ft 524 kts 23°
2026-04-17 02:29 30.43840 120.11657 35106 ft 524 kts 23°
2026-04-17 02:29 30.50117 120.15936 35119 ft 524 kts 22°
2026-04-17 02:30 30.56405 120.20217 35115 ft 524 kts 22°
2026-04-17 02:30 30.62687 120.24498 35112 ft 524 kts 22°
2026-04-17 02:31 30.68923 120.28758 35137 ft 524 kts 22°
2026-04-17 02:31 30.75207 120.33057 35124 ft 524 kts 22°
2026-04-17 02:32 30.81492 120.37364 35109 ft 524 kts 22°
2026-04-17 02:32 30.87564 120.42127 35115 ft 538 kts 40°
2026-04-17 02:32 30.89909 120.45562 35131 ft 547 kts 56°
2026-04-17 02:33 30.91536 120.49512 35112 ft 550 kts 72°
2026-04-17 02:33 30.93500 120.58119 35108 ft 551 kts 76°
2026-04-17 02:34 30.95492 120.66726 35113 ft 551 kts 74°
2026-04-17 02:34 30.97590 120.75274 35109 ft 552 kts 74°
2026-04-17 02:35 30.99703 120.83869 35111 ft 552 kts 74°
2026-04-17 02:35 31.02873 120.96807 35103 ft 554 kts 74°
2026-04-17 02:36 31.04981 121.05456 35118 ft 555 kts 74°
2026-04-17 02:36 31.07086 121.14112 35118 ft 555 kts 74°
2026-04-17 02:37 31.09281 121.22683 35121 ft 556 kts 72°
2026-04-17 02:37 31.11378 121.31358 35103 ft 555 kts 82°
2026-04-17 02:38 31.11657 121.40276 35117 ft 547 kts 102°
2026-04-17 02:38 31.10406 121.48981 35122 ft 544 kts 105°
2026-04-17 02:39 31.09170 121.57639 35110 ft 545 kts 104°
2026-04-17 02:39 31.07994 121.66374 35115 ft 546 kts 104°
2026-04-17 02:40 31.06827 121.75131 35122 ft 546 kts 104°
2026-04-17 02:40 31.05648 121.83879 35115 ft 546 kts 104°
2026-04-17 02:41 31.04468 121.92553 35118 ft 546 kts 104°
2026-04-17 02:41 31.03273 122.01296 35131 ft 546 kts 104°
2026-04-17 02:42 31.02072 122.10041 35110 ft 546 kts 104°
2026-04-17 02:42 31.01712 122.14451 35097 ft 552 kts 89°
2026-04-17 02:42 31.02046 122.17388 35133 ft 554 kts 75°
2026-04-17 02:43 31.04098 122.22844 35133 ft 548 kts 52°
2026-04-17 02:43 31.06453 122.26205 35147 ft 538 kts 38°
2026-04-17 02:43 31.09304 122.28956 35154 ft 525 kts 23°
2026-04-17 02:43 31.12508 122.30810 35148 ft 508 kts 10°
2026-04-17 02:44 31.18023 122.33131 35132 ft 508 kts
2026-04-17 02:44 31.24704 122.35964 35116 ft 512 kts 11°
2026-04-17 02:45 31.32470 122.39406 35148 ft 516 kts 11°
2026-04-17 02:45 31.39195 122.42405 35135 ft 517 kts 10°
2026-04-17 02:46 31.42602 122.43536 35106 ft 499 kts 356°
2026-04-17 02:46 31.45974 122.43687 35146 ft 475 kts 343°
2026-04-17 02:46 31.49181 122.43117 35124 ft 458 kts 333°
2026-04-17 02:46 31.51170 122.42398 35127 ft 445 kts 326°
2026-04-17 02:47 31.57805 122.39218 35133 ft 446 kts 326°
2026-04-17 02:47 31.62653 122.37023 35128 ft 446 kts 326°
2026-04-17 02:48 31.68377 122.34399 35133 ft 443 kts 325°
2026-04-17 02:48 31.74109 122.31740 35128 ft 442 kts 325°
2026-04-17 02:49 31.80664 122.28529 35164 ft 436 kts 323°
2026-04-17 02:49 31.85343 122.26151 35146 ft 439 kts 324°
2026-04-17 02:50 31.91022 122.23598 35130 ft 441 kts 326°
2026-04-17 02:50 31.96763 122.21082 35131 ft 439 kts 326°
2026-04-17 02:51 32.03392 122.18123 35131 ft 438 kts 326°
2026-04-17 02:51 32.09069 122.15556 35141 ft 437 kts 325°
2026-04-17 02:52 32.14746 122.12977 35135 ft 437 kts 325°
2026-04-17 02:52 32.19465 122.10831 35139 ft 437 kts 325°
2026-04-17 02:53 32.25148 122.08244 35140 ft 438 kts 325°
2026-04-17 02:53 32.30847 122.05655 35137 ft 439 kts 326°
2026-04-17 02:54 32.37482 122.02622 35140 ft 441 kts 327°
2026-04-17 02:54 32.42238 122.00448 35138 ft 441 kts 327°
2026-04-17 02:55 32.47958 121.97833 35134 ft 441 kts 327°
2026-04-17 02:55 32.53678 121.95214 35134 ft 440 kts 326°
2026-04-17 02:56 32.59388 121.92596 35159 ft 440 kts 326°
2026-04-17 02:56 32.65057 121.89992 35148 ft 440 kts 327°
2026-04-17 02:57 32.70765 121.87368 35138 ft 440 kts 327°
2026-04-17 02:57 32.76471 121.84740 35140 ft 440 kts 327°
2026-04-17 02:58 32.82171 121.82112 35141 ft 439 kts 327°
2026-04-17 02:58 32.87830 121.79499 35179 ft 440 kts 327°
2026-04-17 02:59 32.93536 121.76859 35150 ft 440 kts 327°
2026-04-17 02:59 32.99242 121.74217 35140 ft 440 kts 327°
2026-04-17 03:00 33.04946 121.71573 35145 ft 439 kts 327°
2026-04-17 03:00 33.10600 121.68947 35149 ft 439 kts 327°
2026-04-17 03:01 33.16292 121.66299 35147 ft 440 kts 327°
2026-04-17 03:01 33.21989 121.63646 35145 ft 439 kts 327°
2026-04-17 03:02 33.27650 121.60963 35144 ft 436 kts 325°
2026-04-17 03:02 33.33159 121.58120 35145 ft 432 kts 324°
2026-04-17 03:03 33.38664 121.55240 35184 ft 431 kts 324°
2026-04-17 03:03 33.44162 121.52385 35156 ft 430 kts 324°
2026-04-17 03:04 33.49655 121.49544 35155 ft 429 kts 324°
2026-04-17 03:04 33.55091 121.46731 35147 ft 428 kts 324°
2026-04-17 03:05 33.60554 121.43898 35149 ft 427 kts 324°
2026-04-17 03:05 33.66004 121.41069 35191 ft 427 kts 324°
2026-04-17 03:06 33.71513 121.38330 35160 ft 430 kts 326°
2026-04-17 03:06 33.77105 121.35728 35148 ft 431 kts 326°
2026-04-17 03:07 33.82653 121.33144 35151 ft 431 kts 326°
2026-04-17 03:07 33.88231 121.30516 35149 ft 430 kts 326°
2026-04-17 03:08 33.93807 121.27871 35158 ft 431 kts 326°
2026-04-17 03:08 33.99388 121.25218 35156 ft 431 kts 326°
2026-04-17 03:09 34.04974 121.22559 35156 ft 432 kts 326°
2026-04-17 03:09 34.10531 121.19910 35150 ft 432 kts 326°
2026-04-17 03:10 34.16125 121.17240 35150 ft 432 kts 326°
2026-04-17 03:10 34.21726 121.14562 35161 ft 433 kts 326°
2026-04-17 03:11 34.27335 121.11877 35147 ft 434 kts 326°
2026-04-17 03:11 34.32909 121.09205 35153 ft 434 kts 326°
2026-04-17 03:12 34.38529 121.06508 35157 ft 434 kts 326°
2026-04-17 03:12 34.44144 121.03809 35185 ft 434 kts 327°
2026-04-17 03:13 34.49764 121.01104 35166 ft 435 kts 327°
2026-04-17 03:13 34.55349 120.98411 35157 ft 435 kts 327°
2026-04-17 03:14 34.60969 120.95698 35171 ft 435 kts 327°
2026-04-17 03:14 34.66584 120.92983 35160 ft 434 kts 327°
2026-04-17 03:15 34.72196 120.90265 35153 ft 434 kts 327°
2026-04-17 03:15 34.77801 120.87547 35154 ft 433 kts 327°
2026-04-17 03:16 34.83393 120.84831 35154 ft 432 kts 327°
2026-04-17 03:16 34.88965 120.82116 34628 ft 438 kts 328°
2026-04-17 03:17 34.91784 120.80743 34065 ft 436 kts 328°
2026-04-17 03:17 34.94605 120.79370 33439 ft 436 kts 329°
2026-04-17 03:17 34.97399 120.78013 32981 ft 430 kts 329°
2026-04-17 03:17 35.00168 120.76665 32494 ft 426 kts 329°
2026-04-17 03:18 35.02899 120.75333 32033 ft 421 kts 329°
2026-04-17 03:18 35.05610 120.74008 31581 ft 417 kts 329°
2026-04-17 03:18 35.08248 120.72714 31142 ft 413 kts 329°
2026-04-17 03:18 35.10898 120.71415 30704 ft 409 kts 329°
2026-04-17 03:19 35.13530 120.70126 30268 ft 405 kts 329°
2026-04-17 03:19 35.16135 120.68850 29784 ft 402 kts 329°
2026-04-17 03:19 35.18726 120.67595 29315 ft 398 kts 330°
2026-04-17 03:19 35.21288 120.66359 28869 ft 394 kts 330°
2026-04-17 03:20 35.23825 120.65134 28392 ft 390 kts 330°
2026-04-17 03:20 35.26338 120.63919 27946 ft 386 kts 330°
2026-04-17 03:20 35.28823 120.62715 27508 ft 383 kts 331°
2026-04-17 03:20 35.31289 120.61517 27068 ft 379 kts 331°
2026-04-17 03:21 35.33694 120.60348 26646 ft 376 kts 331°
2026-04-17 03:21 35.36117 120.59171 26225 ft 373 kts 331°
2026-04-17 03:21 35.38522 120.58002 25794 ft 370 kts 331°
2026-04-17 03:21 35.40915 120.56841 25326 ft 369 kts 332°
2026-04-17 03:22 35.43297 120.55689 24909 ft 367 kts 332°
2026-04-17 03:22 35.45665 120.54542 24502 ft 365 kts 332°
2026-04-17 03:22 35.48026 120.53395 24033 ft 365 kts 332°
2026-04-17 03:22 35.50376 120.52256 23600 ft 363 kts 333°
2026-04-17 03:23 35.52694 120.51133 23117 ft 361 kts 333°
2026-04-17 03:23 35.55021 120.50004 22668 ft 358 kts 333°
2026-04-17 03:23 35.57328 120.48884 22262 ft 355 kts 333°
2026-04-17 03:23 35.59611 120.47774 21842 ft 352 kts 333°
2026-04-17 03:24 35.61870 120.46674 21441 ft 349 kts 333°
2026-04-17 03:24 35.64119 120.45578 21039 ft 346 kts 333°
2026-04-17 03:24 35.66345 120.44492 20640 ft 343 kts 333°
2026-04-17 03:24 35.68554 120.43414 20255 ft 340 kts 334°
2026-04-17 03:25 35.70748 120.42342 19886 ft 338 kts 334°
2026-04-17 03:25 35.72923 120.41279 19492 ft 336 kts 334°
2026-04-17 03:25 35.75062 120.40233 19108 ft 334 kts 334°
2026-04-17 03:25 35.77214 120.39181 18720 ft 332 kts 335°
2026-04-17 03:26 35.79351 120.38134 18340 ft 330 kts 335°
2026-04-17 03:26 35.81481 120.37091 17905 ft 328 kts 335°
2026-04-17 03:26 35.83594 120.36055 17495 ft 325 kts 335°
2026-04-17 03:26 35.85686 120.35030 17111 ft 322 kts 335°
2026-04-17 03:27 35.87761 120.34011 16741 ft 319 kts 335°
2026-04-17 03:27 35.89817 120.33001 16368 ft 317 kts 335°
2026-04-17 03:27 35.91859 120.31998 15988 ft 315 kts 335°
2026-04-17 03:27 35.93859 120.31016 15626 ft 312 kts 335°
2026-04-17 03:28 35.95872 120.30026 15264 ft 310 kts 336°
2026-04-17 03:28 35.97882 120.29091 14899 ft 309 kts 342°
2026-04-17 03:28 36.00018 120.28689 14549 ft 311 kts 353°
2026-04-17 03:28 36.02170 120.28502 14178 ft 310 kts 352°
2026-04-17 03:29 36.04312 120.28290 13802 ft 309 kts 352°
2026-04-17 03:29 36.06416 120.28062 13405 ft 307 kts 351°
2026-04-17 03:29 36.08544 120.27651 13020 ft 303 kts 344°
2026-04-17 03:29 36.10511 120.26750 12514 ft 303 kts 330°
2026-04-17 03:30 36.12171 120.25179 11819 ft 311 kts 312°
2026-04-17 03:30 36.13299 120.22861 11053 ft 323 kts 290°
2026-04-17 03:30 36.13525 120.20063 10360 ft 337 kts 264°
2026-04-17 03:30 36.12653 120.17350 9747 ft 349 kts 236°
2026-04-17 03:31 36.10769 120.15451 9122 ft 355 kts 205°
2026-04-17 03:31 36.08367 120.15031 8672 ft 347 kts 172°
2026-04-17 03:31 36.06194 120.16082 8413 ft 330 kts 142°
2026-04-17 03:31 36.04797 120.18189 8143 ft 312 kts 110°
2026-04-17 03:32 36.04466 120.20737 7685 ft 297 kts 77°
2026-04-17 03:32 36.05264 120.22906 7471 ft 273 kts 43°
2026-04-17 03:32 36.06710 120.24301 7247 ft 259 kts 28°
2026-04-17 03:32 36.08273 120.25361 6994 ft 255 kts 20°
2026-04-17 03:33 36.09935 120.26072 6748 ft 251 kts 11°
2026-04-17 03:33 36.11644 120.26478 6505 ft 249 kts
2026-04-17 03:33 36.13370 120.26667 6259 ft 248 kts
2026-04-17 03:33 36.15092 120.26711 6005 ft 247 kts 357°
2026-04-17 03:34 36.16811 120.26661 5753 ft 247 kts 355°
2026-04-17 03:34 36.18520 120.26550 5509 ft 246 kts 355°
2026-04-17 03:34 36.20206 120.26406 5265 ft 246 kts 354°
2026-04-17 03:34 36.21916 120.26233 5012 ft 247 kts 354°
2026-04-17 03:35 36.23634 120.26043 4774 ft 253 kts 353°
2026-04-17 03:35 36.25468 120.25828 4542 ft 270 kts 353°
2026-04-17 03:35 36.27332 120.25611 4280 ft 267 kts 353°
2026-04-17 03:35 36.29168 120.25371 4017 ft 262 kts 349°
2026-04-17 03:36 36.32525 120.24157 3482 ft 243 kts 341°
2026-04-17 03:36 36.34122 120.23492 3235 ft 242 kts 341°
2026-04-17 03:36 36.35702 120.22841 3037 ft 243 kts 341°
2026-04-17 03:37 36.37323 120.22182 3009 ft 249 kts 341°
2026-04-17 03:37 36.38967 120.21522 2969 ft 248 kts 341°
2026-04-17 03:37 36.40581 120.20878 2959 ft 240 kts 341°
2026-04-17 03:37 36.42190 120.20241 2968 ft 245 kts 341°
2026-04-17 03:38 36.43828 120.19595 2976 ft 248 kts 341°
2026-04-17 03:38 36.45461 120.18952 2961 ft 241 kts 342°
2026-04-17 03:38 36.47005 120.18347 2951 ft 226 kts 342°
2026-04-17 03:38 36.48449 120.17779 2964 ft 208 kts 342°
2026-04-17 03:39 36.49790 120.17251 2986 ft 204 kts 341°
2026-04-17 03:39 36.51145 120.16717 2967 ft 205 kts 341°
2026-04-17 03:39 36.52503 120.16186 2975 ft 205 kts 341°
2026-04-17 03:39 36.53797 120.15526 2841 ft 198 kts 324°
2026-04-17 03:40 36.54577 120.14213 2674 ft 187 kts 284°
2026-04-17 03:40 36.54509 120.12651 2531 ft 183 kts 252°
2026-04-17 03:40 36.54102 120.11152 2417 ft 183 kts 252°
2026-04-17 03:40 36.53713 120.09640 2257 ft 184 kts 252°
2026-04-17 03:41 36.53324 120.08123 2110 ft 183 kts 252°
2026-04-17 03:41 36.52943 120.06627 2026 ft 185 kts 252°
2026-04-17 03:41 36.52409 120.05186 1987 ft 184 kts 229°
2026-04-17 03:41 36.51459 120.04130 2009 ft 185 kts 221°
2026-04-17 03:42 36.50510 120.03072 1997 ft 177 kts 221°
2026-04-17 03:42 36.49525 120.02403 1987 ft 152 kts 186°
2026-04-17 03:42 36.48608 120.02803 2020 ft 141 kts 148°
2026-04-17 03:42 36.47726 120.03262 1998 ft 134 kts 174°
2026-04-17 03:43 36.46791 120.03387 2006 ft 137 kts 170°
2026-04-17 03:43 36.45878 120.03707 1885 ft 139 kts 164°
2026-04-17 03:43 36.44958 120.04067 1703 ft 138 kts 162°
2026-04-17 03:43 36.44055 120.04424 1501 ft 135 kts 162°
2026-04-17 03:44 36.43164 120.04775 1342 ft 135 kts 162°
2026-04-17 03:44 36.42272 120.05127 1158 ft 135 kts 162°
2026-04-17 03:44 36.41382 120.05477 972 ft 133 kts 162°
2026-04-17 03:44 36.40508 120.05821 802 ft 132 kts 162°
2026-04-17 03:45 36.39644 120.06162 619 ft 131 kts 161°
2026-04-17 03:45 36.38798 120.06513 469 ft 128 kts 161°
2026-04-17 03:45 36.37937 120.06861 301 ft 131 kts 162°
2026-04-17 03:45 36.37064 120.07200 86 ft 131 kts 162°
2026-04-17 03:46 36.36274 120.07496 41 ft 95 kts 162°
2026-04-17 03:46 36.35778 120.07687 36 ft 53 kts 162°
2026-04-17 03:46 36.35584 120.07812 37 ft 24 kts 141°
2026-04-17 03:46 36.35499 120.07938 37 ft 17 kts 92°
2026-04-17 03:47 36.35514 120.08015 38 ft 9 kts 72°
2026-04-17 03:47 36.35539 120.08109 37 ft 14 kts 71°
2026-04-17 03:47 36.35617 120.08156 38 ft 14 kts 345°
2026-04-17 03:47 36.35714 120.08119 37 ft 17 kts 342°
2026-04-17 03:48 36.35868 120.08058 36 ft 25 kts 340°
2026-04-17 03:48 36.36024 120.07997 38 ft 22 kts 343°
2026-04-17 03:48 36.36143 120.07954 36 ft 10 kts 358°
2026-04-17 03:48 36.36175 120.08017 38 ft 10 kts 89°
2026-04-17 03:49 36.36171 120.08093 38 ft 7 kts 78°
2026-04-17 03:49 36.36199 120.08115 38 ft 5 kts 13°
2026-04-17 03:49 36.36214 120.08118 38 ft 0 kts 11°